Overview Statistics Trail Chart Weather Telemetry Raw packets
 

This is the latest recevied weather packets stored in our database for station/object R8AHC-W2. If no packets are shown the sender has not sent any weather packets the latest 10 day(s).

<< 4 5 6 7 8 9 10 >>
Time Temp. Humidity Pressure Rain* Wind** Luminosity Snow
1777647422 4.44° C 91% 1012 hPa - 0.89 m/s, 298° - -
1777643822 2.22° C 96% 1012 hPa - 3.13 m/s, 322° - -
1777640221 3.33° C 96% 1011 hPa - 3.13 m/s, 322° - -
1777636622 4.44° C 96% 1011 hPa - 3.13 m/s, 322° - -
1777633022 0.56° C 98% 1011 hPa - 1.79 m/s, 310° - -
1777629422 1.67° C 98% 1011 hPa - 1.79 m/s, 310° - -
1777625822 2.78° C 98% 1010 hPa - 1.79 m/s, 310° - -
1777622222 3.89° C 98% 1010 hPa - 1.79 m/s, 310° - -
1777618622 0° C 96% 1011 hPa - 2.68 m/s, 18° - -
1777615022 1.11° C 96% 1011 hPa - 2.68 m/s, 18° - -
1777611422 2.22° C 96% 1011 hPa - 2.68 m/s, 18° - -
1777607822 3.33° C 96% 1011 hPa - 2.68 m/s, 18° - -
1777604222 4.44° C 96% 1012 hPa - 2.68 m/s, 18° - -
1777600622 0.56° C 95% 1013 hPa - 2.68 m/s, 24° - -
1777597022 1.67° C 95% 1013 hPa - 2.68 m/s, 24° - -
1777593423 2.78° C 95% 1013 hPa - 2.68 m/s, 24° - -
1777589821 3.89° C 95% 1014 hPa - 2.68 m/s, 24° - -
1777586222 5° C 95% 1015 hPa - 2.68 m/s, 24° - -
1777582622 1.67° C 51% 1015 hPa - 1.34 m/s, 174° - -
1777579022 2.78° C 51% 1016 hPa - 1.34 m/s, 174° - -
1777575422 3.89° C 51% 1016 hPa - 1.34 m/s, 174° - -
1777571822 5° C 51% 1017 hPa - 1.34 m/s, 174° - -
1777568222 6.11° C 51% 1017 hPa - 1.34 m/s, 174° - -
1777564622 7.22° C 51% 1018 hPa - 1.34 m/s, 174° - -
1777561022 8.33° C 51% 1018 hPa - 1.34 m/s, 174° - -

* Rain since midnight (hover to see other rain measurements)
** Current wind speed in m/s (hover to see current wind gust speed)